EN

Hourly Weather Altagracia

Today, 22 January, Friday

Time Temperature Precipitation Wind Pressure Humidity
00:00 +26°C° 0.1 mm 10 mps 751 mmHg 85%
01:00 +26°C° 0.1 mm 10 mps 751 mmHg 84%
02:00 +26°C° 0.1 mm 10 mps 750 mmHg 84%
03:00 +26°C° 0.1 mm 9 mps 750 mmHg 84%
04:00 +26°C° 0 mm 9 mps 751 mmHg 83%
05:00 +26°C° 0 mm 9 mps 751 mmHg 83%
06:00 +26°C° 0 mm 9 mps 751 mmHg 83%
07:00 +27°C° 0 mm 9 mps 751 mmHg 78%
08:00 +27°C° 0 mm 9 mps 752 mmHg 73%
09:00 +28°C° 0 mm 9 mps 752 mmHg 69%
10:00 +29°C° 0 mm 8 mps 752 mmHg 67%
11:00 +31°C° 0 mm 8 mps 751 mmHg 65%
12:00 +30°C° 0 mm 7 mps 751 mmHg 63%
13:00 +30°C° 0 mm 7 mps 750 mmHg 63%
14:00 +32°C° 0 mm 7 mps 749 mmHg 63%
15:00 +32°C° 0 mm 8 mps 749 mmHg 63%
16:00 +31°C° 0 mm 8 mps 749 mmHg 66%
17:00 +29°C° 0 mm 8 mps 749 mmHg 68%
18:00 +29°C° 0 mm 8 mps 750 mmHg 70%
19:00 +28°C° 0 mm 8 mps 750 mmHg 73%
20:00 +28°C° 0 mm 9 mps 751 mmHg 75%
21:00 +27°C° 0 mm 9 mps 751 mmHg 78%
22:00 +27°C° 0.2 mm 9 mps 751 mmHg 80%
23:00 +27°C° 0.2 mm 8 mps 751 mmHg 81%

Tomorrow, 23 January, Saturday

Time Temperature Precipitation Wind Pressure Humidity
00:00 +26°C° 0.2 mm 8 mps 751 mmHg 83%
01:00 +26°C° 0.6 mm 8 mps 751 mmHg 84%
02:00 +26°C° 0.6 mm 8 mps 751 mmHg 85%
03:00 +26°C° 0.6 mm 8 mps 750 mmHg 86%
04:00 +26°C° 0.3 mm 8 mps 751 mmHg 85%
05:00 +26°C° 0.3 mm 9 mps 751 mmHg 85%
06:00 +26°C° 0.3 mm 9 mps 752 mmHg 85%
07:00 +27°C° 0.1 mm 8 mps 752 mmHg 81%
08:00 +27°C° 0.1 mm 8 mps 752 mmHg 76%
09:00 +28°C° 0.1 mm 8 mps 753 mmHg 72%
10:00 +29°C° 0 mm 7 mps 752 mmHg 69%
11:00 +30°C° 0 mm 7 mps 751 mmHg 66%
12:00 +30°C° 0 mm 7 mps 751 mmHg 63%
13:00 +32°C° 0 mm 7 mps 750 mmHg 63%
14:00 +32°C° 0 mm 7 mps 749 mmHg 63%
15:00 +32°C° 0 mm 8 mps 749 mmHg 64%
16:00 +31°C° 0 mm 8 mps 749 mmHg 66%
17:00 +29°C° 0 mm 8 mps 749 mmHg 69%
18:00 +29°C° 0 mm 8 mps 750 mmHg 72%
19:00 +28°C° 0 mm 9 mps 750 mmHg 73%
20:00 +28°C° 0 mm 9 mps 751 mmHg 75%
21:00 +27°C° 0 mm 10 mps 751 mmHg 76%
22:00 +27°C° 0 mm 10 mps 751 mmHg 78%
23:00 +27°C° 0 mm 10 mps 751 mmHg 79%

Day after tomorrow, 24 January, Sunday

Time Temperature Precipitation Wind Pressure Humidity
00:00 +26°C° 0 mm 9 mps 750 mmHg 81%
01:00 +26°C° 0.1 mm 9 mps 750 mmHg 82%
02:00 +26°C° 0.1 mm 9 mps 750 mmHg 83%
03:00 +26°C° 0.1 mm 9 mps 750 mmHg 84%
04:00 +26°C° 0.1 mm 9 mps 750 mmHg 84%
05:00 +26°C° 0.1 mm 9 mps 750 mmHg 84%
06:00 +26°C° 0.1 mm 10 mps 751 mmHg 84%
07:00 +27°C° 0 mm 10 mps 751 mmHg 80%
08:00 +28°C° 0 mm 10 mps 751 mmHg 76%
09:00 +28°C° 0 mm 10 mps 752 mmHg 72%
10:00 +29°C° 0 mm 9 mps 751 mmHg 68%
11:00 +31°C° 0 mm 8 mps 751 mmHg 65%
12:00 +32°C° 0 mm 7 mps 750 mmHg 61%
13:00 +32°C° 0 mm 7 mps 749 mmHg 60%
14:00 +32°C° 0 mm 7 mps 749 mmHg 59%
15:00 +33°C° 0 mm 7 mps 748 mmHg 58%
16:00 +32°C° 0 mm 8 mps 748 mmHg 62%
17:00 +31°C° 0 mm 8 mps 748 mmHg 66%
18:00 +29°C° 0 mm 9 mps 749 mmHg 70%
19:00 +28°C° 0 mm 9 mps 749 mmHg 73%
20:00 +28°C° 0 mm 10 mps 750 mmHg 77%
21:00 +27°C° 0 mm 10 mps 750 mmHg 80%
22:00 +27°C° 0.1 mm 10 mps 750 mmHg 81%
23:00 +27°C° 0.1 mm 10 mps 750 mmHg 83%

25 January, Monday

Time Temperature Precipitation Wind Pressure Humidity
00:00 +26°C° 0.1 mm 10 mps 750 mmHg 84%
01:00 +26°C° 0.1 mm 9 mps 749 mmHg 85%
02:00 +26°C° 0.1 mm 9 mps 749 mmHg 85%
03:00 +26°C° 0.1 mm 9 mps 749 mmHg 85%
04:00 +26°C° 0.2 mm 8 mps 749 mmHg 86%
05:00 +24°C° 0.2 mm 8 mps 750 mmHg 87%
06:00 +24°C° 0.2 mm 8 mps 750 mmHg 88%
07:00 +26°C° 0.2 mm 8 mps 750 mmHg 84%
08:00 +27°C° 0.2 mm 8 mps 751 mmHg 80%
09:00 +28°C° 0.2 mm 7 mps 751 mmHg 76%
10:00 +29°C° 0.1 mm 7 mps 751 mmHg 72%
11:00 +30°C° 0.1 mm 6 mps 750 mmHg 68%
12:00 +30°C° 0.1 mm 6 mps 750 mmHg 64%
13:00 +32°C° 0 mm 5 mps 749 mmHg 62%
14:00 +32°C° 0 mm 4 mps 749 mmHg 60%
15:00 +31°C° 0 mm 3 mps 748 mmHg 58%
16:00 +30°C° 0 mm 5 mps 748 mmHg 63%
17:00 +29°C° 0 mm 6 mps 748 mmHg 68%
18:00 +28°C° 0 mm 8 mps 748 mmHg 73%
19:00 +28°C° 0 mm 9 mps 749 mmHg 76%
20:00 +27°C° 0 mm 9 mps 749 mmHg 78%
21:00 +27°C° 0 mm 10 mps 750 mmHg 80%
22:00 +27°C° 0 mm 10 mps 750 mmHg 81%
23:00 +27°C° 0 mm 9 mps 750 mmHg 82%

26 January, Tuesday

Time Temperature Precipitation Wind Pressure Humidity
00:00 +26°C° 0 mm 9 mps 750 mmHg 83%
01:00 +26°C° 0 mm 9 mps 750 mmHg 84%
02:00 +26°C° 0 mm 9 mps 750 mmHg 85%
03:00 +26°C° 0 mm 8 mps 749 mmHg 85%
04:00 +26°C° 0.1 mm 8 mps 750 mmHg 86%
05:00 +26°C° 0.1 mm 8 mps 750 mmHg 86%
06:00 +26°C° 0.1 mm 8 mps 750 mmHg 87%
07:00 +27°C° 0 mm 8 mps 751 mmHg 82%
08:00 +28°C° 0 mm 8 mps 751 mmHg 77%
09:00 +29°C° 0 mm 8 mps 751 mmHg 73%
10:00 +29°C° 0 mm 8 mps 751 mmHg 70%
11:00 +30°C° 0 mm 7 mps 750 mmHg 67%
12:00 +32°C° 0 mm 7 mps 750 mmHg 64%
13:00 +32°C° 0 mm 7 mps 749 mmHg 62%
14:00 +32°C° 0 mm 7 mps 749 mmHg 60%
15:00 +33°C° 0 mm 7 mps 748 mmHg 58%
16:00 +32°C° 0 mm 8 mps 748 mmHg 62%
17:00 +31°C° 0 mm 8 mps 749 mmHg 65%
18:00 +29°C° 0 mm 9 mps 749 mmHg 69%
19:00 +28°C° 0 mm 9 mps 750 mmHg 72%
20:00 +28°C° 0 mm 9 mps 750 mmHg 75%
21:00 +27°C° 0 mm 10 mps 751 mmHg 79%
22:00 +27°C° 0 mm 9 mps 751 mmHg 80%
23:00 +26°C° 0 mm 9 mps 751 mmHg 81%

27 January, Wednesday

Time Temperature Precipitation Wind Pressure Humidity
00:00 +26°C° 0 mm 8 mps 750 mmHg 82%
01:00 +26°C° 0 mm 8 mps 750 mmHg 83%
02:00 +26°C° 0 mm 8 mps 750 mmHg 83%
03:00 +24°C° 0 mm 8 mps 750 mmHg 84%
04:00 +24°C° 0 mm 8 mps 750 mmHg 84%
05:00 +24°C° 0 mm 8 mps 750 mmHg 84%
06:00 +24°C° 0 mm 8 mps 751 mmHg 85%
07:00 +26°C° 0 mm 8 mps 751 mmHg 81%
08:00 +27°C° 0 mm 9 mps 751 mmHg 77%
09:00 +28°C° 0 mm 9 mps 752 mmHg 73%
10:00 +29°C° 0 mm 9 mps 751 mmHg 70%
11:00 +31°C° 0 mm 8 mps 751 mmHg 67%
12:00 +32°C° 0 mm 7 mps 751 mmHg 63%
13:00 +32°C° 0 mm 7 mps 750 mmHg 62%
14:00 +32°C° 0 mm 7 mps 749 mmHg 60%
15:00 +32°C° 0 mm 7 mps 749 mmHg 59%
16:00 +32°C° 0 mm 8 mps 749 mmHg 62%
17:00 +31°C° 0 mm 9 mps 749 mmHg 66%
18:00 +29°C° 0 mm 9 mps 749 mmHg 69%
19:00 +29°C° 0 mm 9 mps 750 mmHg 72%
20:00 +28°C° 0 mm 9 mps 750 mmHg 75%
21:00 +27°C° 0 mm 9 mps 751 mmHg 78%
22:00 +27°C° 0 mm 9 mps 751 mmHg 79%
23:00 +27°C° 0 mm 9 mps 751 mmHg 80%
Show more